Orbital Elements at Epoch 2459200.5 (2020-Dec-17.0) TDB
Reference: JPL 24 (heliocentric ecliptic J2000)
Element | Value | Uncertainty (1-sigma) | Units |
e | .1060456330506276 | 3.1212e-08 | |
a | 2.272951339366528 | 7.8176e-09 | au |
q | 2.031914775690133 | 7.0364e-08 | au |
i | 1.006618554705734 | 3.4035e-06 | deg |
node | 222.9390678651179 | 0.00020372 | deg |
peri | 253.6128415611566 | 0.00020471 | deg |
M | 227.4152136062247 | 1.9789e-05 | deg |
tp | 2459661.472297259540 (2022-Mar-22.97229726) | 6.9652e-05 | TDB |
period | 1251.65210524656 3.43 | 6.4574e-06 1.768e-08 | d yr |
n | .2876198573796864 | 1.4839e-09 | deg/d |
Q | 2.513987903042923 | 8.6467e-09 | au |
|
| | Orbit Determination Parameters
Additional Information
|